Location: Glendale
(37.4556°N, 88.6714°W)
Time: 19:43:30
(UTC+00:00)

USA 116 - Pass Details

Date: 08 December 2019
Orbit: 405 x 834 km, 97.9° (Epoch: 18 November)

Event Time Altitude Azimuth Distance (km) Brightness Sun altitude
Rises 11:39:50 0° 172° (S) 2,719 7.6 -14.8°
Reaches altitude 10° 11:41:51 10° 175° (S) 1,889 6.7 -14.5°
Maximum altitude 11:45:57 70° 259° (W) 677 3.9 -13.7°
Drops below altitude 10° 11:50:39 10° 343° (NNW) 2,151 6.4 -12.8°
Sets 11:53:03 0° 346° (NNW) 3,133 7.2 -12.3°
